Wetbulb
77.08 76.68 75.40 75.31 76.58 77.71 77.65 78.50 77.90 78.21 78.11 77.70 78.15 77.13 76.27 76.04 76.21 76.62 75.77 75.38 75.57 76.29 76.39 74.49 74.42 77.09 74.09 75.53 73.96 74.47 73.12 74.29 72.35 72.70 74.63 77.30 77.34 77.26 77.20 78.19 78.14 78.07 76.35
76.22 78.00 76.70 77.70 77.72 77.00 77.45 77.70 75.50 73.48 77.84 78.38 77.82 76.95 76.37 75.17 75.67 73.66 73.19 75.14 74.75 74.23 75.55 76.53 76.13 74.91 77.09 76.67 74.57 76.52 74.01 74.68 72.26 74.76 71.28 75.18 77.35 79.79 79.78 78.50 77.13 75.83 76.73
76.40 75.96 76.18 76.95 77.11 76.78 77.44 77.31 73.93 74.59 75.03 78.01 77.58 76.84 74.36 73.75 73.70 74.47 75.34 75.64 75.14 73.10 75.55 74.83 73.38 75.68 74.67 75.26 76.24 75.31 74.55 74.80 75.46 72.71 72.25 74.46 76.38 76.73 76.50 78.84 79.17 78.17 76.68
75.33 76.26 77.06 76.12 76.95 78.01 78.25 78.04 77.00 74.87 75.01 76.62 77.33 76.98 74.55 74.78 75.58 75.30 74.95 75.96 74.27 73.73 75.86 75.12 73.77 75.58 76.55 77.03 76.36 77.64 76.48 77.31 75.75 73.44 72.40 73.17 74.47 77.69 75.85 73.28 74.60 77.62 74.22
74.43 74.67 74.96 75.92 76.34 76.22 76.47 76.88 77.12 75.67 73.17 75.22 73.67 76.00 75.33 74.90 73.67 74.36 74.30 74.07 73.55 73.70 75.12 74.73 75.96 76.11 73.66 74.81 75.21 77.08 78.61 74.85 72.96 72.36 71.92 71.81 72.13 75.05 72.95 72.40 72.04 74.29 74.68
71.59 72.12 73.26 73.98 74.50 74.13 75.69 77.01 73.65 67.65 68.31 68.74 73.90 74.17 76.04 74.51 69.07 69.14 72.71 73.29 74.49 74.33 72.22 73.45 73.90 73.97 73.07 70.04 69.34 70.94 76.05 76.93 75.16 73.82 71.80 74.37 75.18 75.12 74.79 73.06 74.46 74.48 70.93
69.23 70.23 71.19 72.52 72.78 73.42 73.62 74.63 75.76 69.37 67.95 71.38 74.81 74.10 74.12 76.24 66.17 67.28 69.14 74.28 75.02 73.17 73.64 72.75 71.86 73.34 74.44 76.49 70.51 69.09 69.25 68.32 69.53 76.48 76.00 75.66 76.85 77.02 77.09 76.57 76.89 76.90 72.43
69.00 69.20 69.72 70.25 70.60 72.79 73.42 73.76 75.38 75.88 75.09 74.86 74.83 76.25 76.02 77.04 66.50 65.00 67.58 73.83 76.09 74.91 72.72 75.02 74.31 72.21 75.88 76.87 77.14 75.14 74.74 74.85 74.53 73.91 75.64 76.81 77.78 78.10 78.46 78.34 77.53 77.10 75.56
67.36 68.88 69.66 69.46 70.20 70.45 71.50 73.57 74.62 74.62 74.00 75.02 75.25 77.12 76.37 77.82 66.82 63.81 67.16 73.20 73.41 75.17 76.09 77.10 72.31 74.49 70.86 66.53 76.64 76.16 76.21 75.78 70.50 68.81 69.87 69.84 69.55 70.21 71.29 74.52 72.66 71.37 70.23
69.19 69.35 70.99 70.73 70.86 69.96 71.80 72.95 73.85 74.54 73.76 71.77 74.00 75.64 71.02 76.69 69.18 62.80 65.71 74.60 73.87 73.15 75.50 74.05 67.89 71.15 67.87 64.33 75.27 75.53 73.59 73.38 74.92 74.64 74.74 71.57 69.73 72.75 68.01 74.41 72.86 70.46 69.38
69.87 70.10 70.59 70.78 71.00 71.30 71.99 72.67 72.29 72.80 73.29 73.76 73.27 74.35 75.16 73.87 75.50 60.73 60.78 71.37 74.05 73.30 72.62 74.57 74.83 64.80 62.66 60.55 62.27 74.75 73.16 73.38 74.40 75.00 76.59 74.61 75.82 76.42 75.59 74.54 75.72 73.41 70.12
68.80 68.98 69.73 70.38 68.95 67.42 70.45 71.50 71.30 72.74 72.98 72.94 73.03 72.38 70.13 75.07 66.83 63.21 59.60 64.31 68.34 72.69 73.43 74.21 74.52 62.80 61.40 60.39 61.69 65.45 64.22 65.96 75.74 73.35 71.67 72.67 71.46 73.04 73.88 74.35 76.49 75.67 74.72
66.65 66.57 67.74 69.16 68.96 69.28 68.94 69.11 67.56 68.96 67.73 67.16 66.97 67.58 68.18 69.51 72.28 62.34 59.10 59.09 61.32 68.75 74.41 71.08 66.12 57.69 59.06 60.59 60.09 63.06 62.57 72.38 74.17 71.26 71.33 71.86 72.09 72.67 75.92 72.55 74.97 77.21 76.14
65.41 65.94 66.28 66.12 66.34 67.96 66.29 66.33 65.96 64.83 64.88 66.24 66.70 67.46 68.00 69.08 68.80 71.41 71.90 67.14 60.64 65.44 66.59 71.21 68.77 67.11 65.47 68.80 67.35 64.73 71.57 72.66 72.33 72.01 72.16 71.63 73.40 73.53 73.72 71.25 72.31 71.36 70.58
64.63 64.64 64.45 63.93 63.55 63.86 66.19 65.42 65.90 66.97 64.05 64.79 65.81 66.67 66.26 67.08 68.29 63.79 69.64 74.02 72.65 68.63 68.18 71.90 72.26 72.22 72.47 72.40 73.84 73.40 72.48 72.52 72.52 72.94 73.01 72.92 72.96 75.55 76.62 72.91 70.08 71.31 69.95
65.28 64.28 63.33 63.57 62.19 63.08 62.40 63.49 57.94 56.17 54.42 51.17 49.23 56.91 66.72 59.30 52.92 51.85 52.94 50.93 52.03 55.84 66.02 70.30 72.10 72.87 72.35 71.71 70.64 72.66 73.37 71.04 72.97 73.07 73.22 72.95 73.71 74.10 74.04 73.85 70.71 69.13 68.89
65.12 64.46 63.93 61.49 62.74 62.69 63.05 61.87 61.69 61.47 53.07 50.99 49.83 48.25 49.48 56.12 50.22 48.77 46.59 47.50 50.04 55.02 68.14 66.95 66.56 67.94 70.20 73.06 73.21 69.90 71.51 72.44 72.66 71.66 71.21 72.95 73.76 72.85 72.44 71.91 68.40 69.59 68.75
63.46 57.77 64.09 64.33 64.30 63.34 63.07 62.54 62.10 63.29 63.44 63.64 53.69 52.38 49.51 48.23 47.32 46.41 46.41 49.02 60.39 57.43 66.54 67.70 67.09 68.36 69.10 70.12 73.55 71.99 70.73 70.41 71.07 71.68 71.75 71.97 71.50 72.37 71.97 70.08 70.22 69.23 68.68
64.91 64.31 64.12 64.10 63.18 61.95 62.66 62.59 62.88 61.74 64.40 63.29 64.29 54.28 53.28 45.33 44.78 44.57 44.75 63.26 65.68 66.60 69.21 68.83 69.50 68.91 69.50 69.83 71.75 73.50 72.72 69.98 71.72 70.26 70.65 70.87 70.55 70.55 69.31 70.68 69.44 60.91 65.21
64.05 61.40 61.46 63.57 65.16 64.39 65.67 63.56 61.53 62.26 62.05 62.74 63.01 63.92 65.99 57.60 62.13 61.80 60.01 64.78 67.19 67.91 68.96 69.90 69.35 69.51 70.14 70.73 70.70 71.52 71.58 71.79 72.40 72.50 69.75 71.57 70.59 71.00 69.00 69.97 68.83 67.46 67.54
65.56 66.25 62.09 65.39 65.69 65.24 64.00 63.69 63.35 61.40 61.16 60.81 61.24 62.98 55.14 64.20 65.35 66.36 66.48 65.28 66.74 68.18 69.23 69.81 69.70 69.94 70.28 70.41 70.52 69.61 70.48 72.42 73.74 74.00 71.81 72.26 71.46 70.65 71.69 71.07 69.25 68.64 68.04
66.16 65.95 64.60 63.88 61.99 63.81 63.33 63.05 62.18 63.30 62.35 62.11 61.29 62.36 49.89 64.14 64.08 65.66 67.27 67.76 67.77 68.23 69.34 70.36 70.32 70.15 70.08 70.42 69.71 69.50 69.02 69.38 72.29 72.63 68.70 68.93 70.19 69.64 71.01 69.81 68.46 68.21 67.75
64.05 63.56 63.67 62.25 61.54 60.47 64.91 63.93 63.72 64.98 63.66 62.44 62.01 61.43 63.79 63.53 64.68 66.67 65.72 66.92 67.99 69.32 69.69 69.95 70.30 69.38 70.29 70.02 71.15 70.35 70.19 69.04 69.90 72.03 71.63 68.75 68.50 70.34 70.32 68.87 68.17 67.60 66.99
61.92 63.04 62.93 62.84 63.67 63.55 63.17 63.22 63.46 58.09 62.86 63.35 61.60 63.32 64.14 63.69 64.15 66.50 67.20 68.17 68.48 69.03 69.85 70.18 68.83 68.44 68.13 69.55 69.93 70.06 70.67 70.76 71.05 71.12 71.73 71.50 68.93 66.81 69.66 68.39 67.78 67.99 66.77
58.71 62.28 64.06 63.05 62.37 65.33 65.01 63.83 63.07 63.07 64.58 63.75 63.53 64.16 64.20 64.82 65.75 67.86 68.34 67.48 67.56 68.77 69.05 69.71 69.04 69.55 70.07 70.19 70.18 70.28 65.13 50.43 65.11 61.56 71.19 69.73 70.04 68.29 69.15 67.92 68.32 67.05 66.50
58.47 60.15 61.64 63.48 64.39 65.11 63.46 64.62 63.62 62.67 63.39 65.00 64.33 64.26 64.36 64.31 65.83 67.10 68.05 66.78 67.34 67.92 68.44 69.20 69.08 69.59 69.88 69.87 70.32 62.65 49.07 42.79 57.41 42.42 63.88 67.61 67.67 67.68 69.35 68.38 67.55 66.30 66.07
MSLP
1007.36 1008.12 1008.71 1008.51 1008.62 1008.83 1008.81 1009.13 1009.46 1009.46 1009.84 1009.94 1009.91 1010.09 1010.33 1010.66 1010.82 1011.23 1011.73 1011.99 1012.22 1012.39 1012.65 1012.88 1012.90 1012.96 1012.82 1012.43 1012.39 1012.18 1012.01 1011.70 1011.98 1012.12 1013.13 1012.47 1012.74 1012.24 1012.15 1012.35 1012.58 1012.54 1012.35
1006.89 1006.93 1007.19 1007.64 1008.10 1008.36 1008.59 1008.82 1009.13 1009.62 1009.64 1009.96 1009.72 1009.96 1010.00 1010.21 1010.41 1010.84 1011.24 1011.41 1011.50 1011.92 1011.87 1012.10 1012.21 1012.27 1012.35 1012.38 1012.25 1011.64 1011.60 1011.38 1011.28 1012.09 1012.21 1012.05 1012.70 1012.03 1012.16 1012.49 1012.42 1011.69 1011.29
1007.28 1006.87 1006.75 1006.98 1007.76 1008.16 1008.27 1008.88 1009.60 1009.65 1009.57 1009.56 1009.60 1009.58 1010.25 1010.27 1010.24 1010.52 1010.73 1010.66 1010.69 1011.30 1011.53 1011.77 1012.09 1011.91 1012.06 1011.71 1011.69 1011.87 1011.36 1011.23 1011.26 1011.96 1012.02 1011.61 1011.24 1011.58 1011.82 1012.16 1012.00 1011.94 1011.73
1007.29 1007.02 1007.19 1007.18 1007.68 1008.02 1008.07 1008.54 1008.81 1009.42 1009.45 1009.02 1009.35 1009.56 1010.06 1009.96 1009.31 1009.49 1010.07 1010.26 1010.46 1010.82 1010.67 1011.02 1011.45 1011.20 1011.54 1011.85 1011.75 1011.88 1011.68 1011.51 1011.20 1011.10 1010.92 1010.95 1011.11 1011.04 1011.47 1011.64 1011.62 1011.43 1011.60
1007.85 1007.67 1007.63 1007.87 1008.08 1008.17 1008.28 1008.25 1008.33 1009.31 1009.52 1009.02 1008.72 1007.70 1009.26 1009.15 1009.25 1009.24 1009.49 1010.02 1010.21 1010.30 1010.18 1010.49 1010.36 1010.47 1010.85 1011.21 1011.28 1011.53 1011.48 1011.66 1011.38 1011.33 1010.95 1010.77 1010.91 1011.57 1011.87 1011.99 1012.39 1011.50 1011.11
1008.29 1008.02 1008.14 1008.15 1007.97 1008.00 1007.83 1007.93 1008.96 1009.23 1008.66 1008.46 1008.56 1008.35 1007.81 1007.94 1008.14 1008.95 1009.03 1009.15 1009.34 1009.76 1010.11 1010.39 1010.20 1010.46 1010.53 1010.79 1011.16 1011.26 1011.27 1011.64 1011.75 1011.61 1011.26 1011.27 1011.73 1011.59 1011.38 1011.31 1011.26 1011.39 1011.19
1008.65 1008.47 1008.30 1008.21 1008.10 1008.10 1007.91 1007.79 1008.45 1009.01 1008.50 1008.48 1007.92 1007.54 1004.73 1006.60 1007.37 1008.29 1008.75 1008.76 1008.90 1009.08 1009.42 1009.82 1010.02 1009.80 1009.73 1010.26 1010.77 1011.01 1011.34 1011.50 1011.58 1011.62 1011.42 1011.34 1011.46 1011.70 1011.56 1011.41 1011.62 1011.74 1011.50
1008.60 1008.53 1008.43 1008.29 1008.20 1008.10 1008.00 1007.76 1007.65 1007.86 1008.03 1007.89 1007.79 1006.81 1006.44 1006.25 1006.54 1007.43 1008.08 1008.44 1008.23 1008.57 1008.98 1009.16 1009.38 1009.37 1009.39 1009.56 1009.88 1010.37 1010.66 1010.82 1010.99 1011.15 1011.11 1011.05 1011.12 1011.27 1011.42 1011.65 1011.78 1011.86 1011.48
1008.29 1008.22 1008.11 1008.12 1008.06 1008.05 1007.89 1007.51 1007.32 1007.22 1007.07 1006.83 1006.62 1006.35 1006.30 1005.88 1006.01 1006.00 1007.30 1007.52 1007.67 1007.64 1007.92 1008.28 1008.76 1009.00 1009.09 1009.25 1009.50 1009.66 1009.93 1009.89 1009.77 1010.04 1010.23 1010.41 1010.75 1010.96 1011.25 1011.33 1011.25 1011.14 1010.25
1007.72 1007.68 1007.69 1007.67 1007.68 1007.68 1007.57 1007.34 1006.84 1006.62 1006.41 1006.04 1005.73 1005.70 1005.72 1005.64 1005.58 1006.38 1006.57 1006.98 1007.06 1007.04 1007.25 1007.70 1007.84 1008.54 1008.59 1008.97 1009.21 1009.44 1009.54 1009.57 1009.36 1009.40 1010.12 1010.52 1010.44 1010.50 1010.85 1011.09 1010.82 1010.21 1009.63
1007.15 1007.08 1007.02 1007.00 1007.08 1007.10 1007.03 1006.84 1006.60 1006.03 1005.73 1005.56 1005.20 1004.96 1004.88 1004.90 1004.73 1005.52 1006.18 1006.68 1007.24 1006.85 1006.41 1006.42 1006.50 1007.23 1008.02 1008.30 1008.54 1008.82 1008.79 1009.03 1008.98 1008.87 1009.10 1009.48 1009.61 1009.71 1009.90 1010.18 1010.22 1010.15 1009.51
1006.77 1006.65 1006.46 1006.33 1006.29 1006.13 1006.09 1005.91 1005.84 1005.62 1005.19 1004.91 1004.77 1004.35 1003.82 1003.63 1004.08 1004.57 1005.64 1005.77 1005.67 1006.02 1005.10 1004.56 1005.25 1005.78 1006.27 1007.00 1007.57 1007.85 1008.15 1008.53 1008.80 1008.33 1008.04 1008.03 1008.22 1008.79 1008.91 1008.91 1009.11 1009.20 1009.23
1006.23 1006.14 1005.97 1005.76 1005.46 1005.36 1005.37 1005.29 1005.08 1004.87 1004.53 1004.06 1003.41 1002.93 1002.51 1002.22 1002.52 1003.27 1004.22 1005.25 1005.44 1005.32 1004.28 1003.73 1003.81 1004.47 1005.27 1006.21 1006.68 1007.06 1007.53 1007.79 1008.02 1007.72 1007.35 1007.10 1007.33 1007.50 1007.69 1008.06 1008.35 1008.78 1009.19
1005.34 1005.47 1005.38 1005.15 1004.84 1004.50 1004.26 1003.91 1003.70 1003.58 1003.20 1002.73 1002.41 1002.07 1001.72 1001.69 1001.65 1002.25 1003.15 1004.02 1004.51 1004.57 1004.40 1004.00 1004.41 1004.65 1005.06 1005.28 1005.94 1006.72 1006.57 1006.36 1006.47 1006.58 1006.37 1006.26 1006.23 1006.55 1006.83 1007.43 1008.45 1007.92 1008.36
1004.75 1004.51 1004.24 1004.02 1003.82 1003.53 1003.09 1002.73 1002.40 1002.19 1002.10 1002.03 1001.75 1001.31 1000.98 1001.02 1001.44 1001.82 1002.06 1002.58 1002.89 1003.18 1003.95 1003.86 1003.47 1003.69 1004.19 1004.62 1004.95 1005.20 1005.26 1005.35 1005.44 1005.40 1005.37 1005.44 1005.63 1005.93 1006.59 1006.67 1007.08 1007.46 1007.40
1004.01 1003.79 1003.41 1002.89 1002.74 1002.68 1002.21 1001.76 1001.48 1001.60 1001.72 1001.89 1002.13 1002.43 1001.55 1001.24 1001.79 1002.49 1002.51 1002.81 1002.89 1003.57 1004.25 1003.75 1003.30 1003.34 1003.44 1003.75 1003.90 1004.00 1003.90 1003.90 1004.10 1004.58 1004.75 1004.92 1004.95 1005.74 1006.24 1006.58 1006.59 1006.63 1006.54
1003.21 1003.14 1002.93 1002.83 1002.33 1001.51 1001.20 1001.15 1000.73 1000.45 1000.67 1001.00 1001.20 1001.53 1001.86 1001.72 1002.01 1002.47 1002.90 1003.49 1003.62 1003.58 1003.45 1002.99 1002.72 1002.55 1002.95 1003.14 1003.26 1003.13 1002.42 1002.51 1003.03 1003.33 1003.73 1003.86 1004.17 1004.88 1005.54 1005.73 1005.80 1006.19 1005.72
1002.57 1002.44 1002.42 1002.07 1001.60 1001.21 1000.61 1000.53 1000.57 1000.18 1000.13 1000.06 1000.39 1000.69 1000.89 1001.26 1001.79 1002.38 1003.05 1003.73 1003.72 1003.47 1002.96 1002.09 1001.84 1001.82 1002.20 1002.12 1002.50 1002.49 1002.22 1001.96 1002.00 1002.31 1002.75 1003.14 1003.53 1004.11 1004.72 1004.83 1004.65 1004.48 1004.81
1001.67 1001.39 1001.34 1001.28 1000.95 1000.76 1000.47 1000.18 1000.14 999.89 999.48 999.00 998.97 1000.21 1000.24 1001.01 1001.78 1002.21 1002.84 1002.81 1002.23 1001.85 1001.39 1000.83 1000.77 1000.74 1000.67 1000.76 1001.23 1001.64 1001.83 1001.79 1001.69 1001.85 1001.90 1002.17 1002.57 1002.98 1003.39 1003.36 1003.18 1003.72 1004.39
1000.86 1000.49 1000.35 1000.22 1000.07 1000.05 1000.00 999.71 999.35 998.87 998.59 998.32 998.18 998.13 998.97 1000.74 1001.05 1001.20 1001.51 1001.16 1000.59 1000.19 999.94 999.75 999.53 999.85 999.93 999.85 999.93 1000.22 1000.72 1001.02 1000.94 1001.16 1001.24 1001.39 1001.28 1001.76 1002.17 1002.21 1002.24 1002.58 1003.54
999.79 999.30 999.35 999.32 999.27 999.15 999.13 998.74 998.04 998.21 998.10 997.90 997.87 997.67 997.55 997.85 997.71 998.23 999.18 999.58 999.26 998.84 998.41 998.25 998.20 998.42 998.80 998.85 998.90 999.18 1000.00 1000.40 1000.77 1000.82 1000.68 1000.86 1000.87 1001.04 1000.99 1000.88 1001.14 1001.73 1002.19
999.21 998.99 998.42 998.39 998.00 997.78 997.15 997.41 997.78 997.58 997.44 997.29 997.21 996.80 996.43 996.69 996.76 996.65 996.50 996.97 997.55 998.06 997.83 997.60 997.52 997.36 997.34 997.70 998.19 998.26 998.47 998.87 999.42 1000.05 1000.24 1000.65 1000.08 1000.16 999.99 999.92 1000.25 1000.81 1001.43
998.54 997.96 997.33 997.12 996.95 997.15 996.99 996.83 996.51 996.82 996.66 996.43 996.27 996.05 995.22 995.42 995.65 995.31 995.08 995.22 995.54 996.09 996.62 996.94 997.05 997.43 997.41 997.34 997.55 997.79 997.80 997.58 997.88 998.71 999.34 999.87 999.53 999.14 998.60 998.96 999.68 1000.09 1000.69
998.43 997.88 997.22 996.76 996.24 995.78 995.80 995.75 995.79 996.29 996.11 995.08 994.82 994.69 994.06 994.11 994.59 994.56 994.33 994.94 995.17 995.19 995.65 996.00 996.48 996.71 996.90 996.98 997.05 997.16 997.00 996.93 997.18 997.18 997.53 998.14 998.48 998.53 997.74 998.33 999.00 999.52 1000.18
998.55 997.35 996.77 996.39 995.88 995.77 995.87 995.78 995.77 995.95 995.61 994.40 993.90 993.42 993.52 993.52 993.59 994.50 994.19 994.75 994.81 994.24 994.03 994.13 994.93 995.19 995.55 996.01 996.12 996.21 996.27 996.34 996.71 996.95 997.03 997.09 997.32 997.17 997.28 997.84 998.49 999.10 999.98
998.34 997.89 997.24 996.65 995.83 995.62 995.54 995.39 995.54 995.64 995.35 994.66 993.94 994.04 993.95 993.67 993.57 993.32 993.95 994.38 994.19 993.85 993.97 994.15 994.34 994.35 994.39 994.52 994.88 995.37 995.69 996.21 996.69 996.89 997.06 997.29 997.23 995.96 996.67 997.61 998.06 998.75 999.44
Wind_Speed
9 8 9 9 11 11 12 10 10 9 9 10 9 11 11 11 11 11 12 12 12 9 9 9 9 8 8 7 5 6 4 5 6 7 2 6 4 4 3 5 6 8 7
8 9 15 12 9 9 11 12 7 6 8 12 9 11 9 12 9 9 12 12 13 12 13 11 12 9 11 10 5 6 5 5 7 1 11 8 7 9 6 4 7 10 8
7 10 10 6 7 11 11 10 10 8 11 9 10 11 10 10 8 10 12 13 13 11 12 10 7 11 8 10 9 3 7 6 6 6 7 6 1 6 5 8 7 8 7
4 2 4 3 2 7 6 8 9 8 10 8 10 10 12 12 11 11 10 10 9 12 12 11 10 13 9 10 10 7 9 5 7 5 6 4 3 4 4 6 4 5 3
6 1 1 3 5 6 7 8 7 7 7 11 16 11 13 12 7 13 14 11 9 10 10 10 13 11 11 13 10 9 7 7 6 7 8 7 6 3 2 3 10 4 6
6 4 4 5 6 6 6 6 7 3 8 9 18 14 15 12 12 13 11 9 10 13 7 7 7 9 11 8 9 6 6 7 7 5 8 5 6 6 7 7 5 5 7
6 6 6 6 6 6 7 6 5 8 8 10 16 15 17 14 12 14 14 12 11 9 12 9 7 12 15 13 12 9 7 9 9 7 8 8 7 6 8 6 6 5 8
8 8 8 7 8 8 7 8 7 5 9 10 13 14 10 12 12 18 17 16 12 12 11 14 14 14 12 13 12 13 13 13 13 10 11 10 9 7 6 5 5 6 7
11 11 10 9 9 9 9 9 8 8 7 7 7 10 12 13 14 15 15 16 16 16 13 13 10 12 14 11 13 12 12 12 13 18 17 7 6 3 2 6 7 9 10
12 12 11 11 10 11 10 10 10 9 10 10 10 9 12 13 12 15 15 11 12 13 13 12 11 12 16 12 10 11 10 9 12 8 12 9 8 9 9 8 10 10 9
13 13 13 12 12 11 12 11 10 12 11 11 12 10 11 11 13 15 17 9 7 12 13 11 11 20 16 13 12 12 14 10 12 11 7 9 8 9 9 10 10 10 9
13 13 13 13 12 13 13 13 14 13 12 11 12 12 12 11 13 11 18 19 21 16 14 12 14 20 22 20 13 16 14 7 6 11 9 10 8 10 9 8 11 11 8
15 15 14 14 14 13 14 14 12 13 14 13 13 13 12 11 10 13 20 24 23 12 14 10 9 14 21 18 19 15 13 10 8 12 12 10 8 8 10 5 10 9 6
13 13 14 15 15 15 14 14 14 14 14 13 13 13 11 10 10 10 8 9 14 11 15 11 8 6 8 10 12 12 11 12 12 12 11 10 6 5 6 8 7 7 9
14 15 15 14 13 13 14 14 13 13 14 13 12 12 12 11 5 6 5 9 9 11 9 13 11 11 11 11 10 12 12 12 12 12 11 10 9 6 4 8 4 9 9
14 13 13 13 9 13 12 12 20 20 19 15 12 8 13 8 9 6 7 1 11 9 5 9 9 10 11 9 9 13 12 12 12 11 11 11 8 7 8 8 7 8 9
14 15 12 11 12 13 12 10 11 11 22 22 20 15 12 14 9 8 7 7 4 6 8 9 10 11 10 10 10 6 12 12 12 10 9 10 9 9 8 9 7 11 9
12 13 12 12 12 13 14 11 9 11 12 11 18 19 17 13 10 9 5 6 3 3 11 13 12 10 11 11 8 10 10 5 9 11 11 10 7 10 10 10 11 11 8
12 11 11 12 10 12 10 10 13 12 13 13 13 3 11 7 8 8 9 8 9 9 13 12 14 13 12 11 11 10 12 11 7 9 10 11 8 9 10 12 12 10 10
12 19 16 10 10 11 10 12 10 11 11 10 11 9 9 10 8 7 8 11 12 12 12 13 12 12 12 10 9 9 9 11 12 10 8 11 9 11 11 12 11 11 10
11 9 10 10 10 10 10 13 11 9 9 9 10 12 15 7 11 12 11 11 12 13 12 13 12 11 11 10 10 9 11 10 10 9 9 10 10 10 12 11 11 11 10
8 9 10 11 10 11 10 8 9 11 11 11 11 13 13 9 11 11 11 13 12 13 12 12 11 12 11 12 11 12 12 12 10 10 9 7 10 13 13 12 11 11 11
10 12 12 10 8 10 10 11 11 10 13 11 11 13 12 10 13 15 12 10 8 11 12 13 12 12 11 10 12 11 12 13 12 12 13 13 12 11 12 11 11 12 11
10 10 15 12 12 12 11 11 10 11 13 14 9 15 12 10 12 14 8 9 13 13 13 11 9 13 11 11 11 12 12 13 12 13 19 14 13 16 12 11 13 12 11
12 12 12 12 10 11 10 11 11 11 12 12 13 10 11 12 8 11 8 7 10 10 12 10 11 15 19 19 16 16 15 11 12 13 9 8 14 15 11 12 11 12 13
8 10 10 10 11 8 7 8 8 8 11 12 10 11 12 9 10 9 9 9 11 8 10 11 14 18 18 17 20 20 15 10 9 9 6 6 12 11 12 14 16 11 13
Wind_Direction
214 209 226 223 218 223 237 229 251 246 238 243 226 233 231 229 224 217 215 215 220 216 212 211 231 209 246 235 222 227 256 256 181 201 97 181 169 252 198 201 208 236 211
303 210 211 199 219 238 245 240 262 264 251 243 229 234 231 232 216 222 213 211 220 207 219 203 213 222 218 239 251 257 207 256 277 278 169 220 211 176 206 244 273 281 287
279 243 233 254 203 234 243 240 244 272 261 251 230 226 225 216 208 208 219 217 212 216 212 221 221 220 215 226 242 210 248 230 228 246 276 230 190 206 188 216 226 245 260
334 47 41 312 315 252 253 241 247 247 266 268 248 224 224 221 211 199 218 235 215 224 201 211 221 220 202 222 222 226 238 273 245 273 270 296 257 240 208 272 239 233 294
20 297 260 318 291 280 283 284 279 353 319 294 277 231 222 224 225 197 211 212 223 235 210 235 222 209 217 210 213 215 226 238 242 240 242 249 267 68 158 232 235 249 251
351 10 348 341 345 353 343 303 104 46 277 298 283 251 221 222 202 210 211 193 213 201 205 226 262 263 210 209 231 243 222 216 248 260 261 291 298 295 244 251 278 302 292
322 317 314 322 316 324 325 315 173 196 269 252 255 255 242 223 193 205 209 220 210 211 210 206 219 251 204 213 219 246 219 235 238 261 258 254 246 242 284 295 269 271 265
284 282 289 291 299 309 299 295 295 215 223 242 254 260 251 249 210 204 206 224 219 213 206 218 213 228 247 205 215 215 229 229 229 236 239 253 252 256 267 270 280 280 267
271 274 271 270 272 278 279 281 279 287 271 256 251 267 263 253 239 201 196 213 228 222 214 212 225 233 244 217 215 228 225 229 218 206 224 187 150 189 278 256 237 232 247
266 267 266 268 264 260 265 267 273 263 270 264 262 243 260 262 252 203 191 225 229 233 220 225 211 207 233 237 219 223 233 235 256 221 217 225 216 217 192 225 253 260 271
279 273 268 263 262 257 256 254 256 260 264 271 275 271 262 259 271 189 191 191 266 239 238 214 229 202 215 208 194 227 229 234 253 271 208 229 231 227 226 212 221 249 268
276 278 272 264 261 264 258 244 239 243 247 257 263 266 260 241 225 198 192 203 199 235 241 220 206 200 200 206 200 214 224 224 242 255 238 239 236 209 213 208 203 216 241
268 269 270 269 266 259 256 254 253 247 246 255 256 252 253 246 217 214 193 198 228 227 240 243 174 176 197 200 204 209 209 218 227 241 247 254 229 190 203 189 186 192 226
257 259 265 261 255 254 255 248 238 244 255 251 244 238 241 249 246 249 203 206 226 232 251 246 199 209 193 206 185 211 218 218 223 227 240 238 218 184 200 166 226 182 221
259 261 261 260 261 258 244 251 254 254 259 261 255 254 248 247 242 319 215 201 223 222 239 236 244 237 228 219 222 216 205 215 221 227 237 237 240 246 216 226 187 238 229
267 268 260 262 249 252 255 253 227 235 260 263 257 260 289 308 357 10 324 228 107 116 183 245 236 242 235 232 221 228 226 200 209 221 225 236 238 206 226 230 222 228 229
258 255 261 265 265 252 261 256 263 243 224 234 245 248 227 255 301 321 329 127 112 146 227 244 254 256 255 239 246 248 248 207 203 210 218 230 215 216 216 219 226 224 226
263 257 258 261 262 267 257 265 277 263 263 246 226 231 230 222 227 241 230 161 193 204 253 247 250 238 244 240 239 248 261 265 202 204 212 221 209 202 215 221 221 232 199
261 256 249 250 253 259 271 262 253 266 270 261 262 219 198 176 192 205 169 226 225 231 229 222 231 232 238 227 215 223 235 250 229 198 216 212 197 202 213 221 220 220 162
266 252 250 242 242 252 258 257 269 253 265 276 260 248 186 142 189 195 211 226 235 235 228 237 224 238 240 245 241 227 247 252 235 231 192 235 210 192 206 223 225 217 190
265 261 246 255 251 249 244 249 247 242 272 252 251 251 250 212 220 211 210 218 234 236 231 232 223 220 229 241 236 215 226 233 242 246 235 218 211 228 215 217 217 214 215
260 263 259 246 233 258 243 225 231 253 251 242 256 264 215 235 247 242 212 199 215 233 239 238 240 243 226 224 234 245 238 227 226 232 216 262 245 221 218 207 215 218 212
279 278 277 268 245 216 231 252 259 257 265 245 240 254 243 217 231 239 240 252 234 227 221 227 228 233 247 240 231 235 242 242 232 210 217 209 235 258 209 204 205 219 208
286 253 260 264 272 276 264 250 258 271 269 278 230 235 242 230 227 240 228 233 244 223 225 216 215 226 240 241 231 236 238 236 236 241 218 210 214 223 198 197 213 210 208
284 288 283 271 261 239 252 257 260 255 260 256 254 238 239 252 191 213 212 231 255 260 254 238 216 226 221 228 239 240 244 247 242 257 277 226 225 207 189 205 208 204 206
284 294 292 294 287 295 282 269 251 241 250 265 244 235 253 277 281 260 252 248 246 236 225 234 248 260 258 240 234 238 237 237 238 239 239 245 221 205 185 207 200 210 198